User: anonymous   Login
Location: Unspecified
(0.0000°N, 0.0000°E)
Time: 03:26:32
(UTC+00:00)
Language:

Injun/Solrad 3 - Orbit

View from above orbital plane
View from above orbital plane
View from above satellite
View from above satellite

Ground track
Ground track

The orbit data is extracted from the following two-line orbital elements,

1   117U 61015B   18267.86620950 -.00000081 +00000-0 -41682-5 0  9999
2   117 066.8135 042.8859 0071688 113.4985 247.3648 13.89829963902279
Epoch (UTC): 24 September 2018 20:47:20
Eccentricity: 0.0071688
inclination: 66.8135°
perigee height: 877 km
apogee height: 981 km
right ascension of ascending node: 42.8859°
argument of perigee: 113.4985°
revolutions per day: 13.89829963
mean anomaly at epoch: 247.3648°
orbit number at epoch: 90227

The dashed part of the orbit path shows where the satellite is in the earth's shadow,  

DLR